Location: Calmejanne
(44.7523°N, 1.9418°E)
Time: 07:57:46
(UTC+00:00)

Aureole 1 Rocket - Pass Details

Date: 14 May 2026
Orbit: 372 x 1149 km, 73.9° (Epoch: 6 June)

Event Time Altitude Azimuth Distance (km) Brightness Sun altitude
Rises 22:54:27 0° 335° (NNW) 3,359 8.1 -25.2°
Reaches altitude 10° 22:56:42 10° 333° (NNW) 2,530 7.2 -25.3°
Maximum altitude 23:02:36 66° 253° (WSW) 1,083 4.1 -25.6°
Enters shadow 23:03:55 54° 201° (SSW) 1,224 4.1 -25.6°
